Погода в Уральске

Погода в Уральске : погода сейчас, прогноз погоды и архив. Всё, что Вы хотите узнать о погоде в Уральске!

Хотите узнать прогноз погоды в Уральске? Тогда Вам сюда: Погода в Уральске

Поиск расширенной информации на нашем сайте:

Другие новости

Новости СМИ2

Главная страница сайта

Новости сайта

03.07.2017

Напоминаем, что на нашем специализированном сайте Метеоцентр.Азия вы можете получить высокодетализированные автоматические прогнозы погоды по пунктам России, СНГ и мира в авиационном формате (включающие направление и скорость ветра, видимость, явления погоды, количество и форму облачности, нижнюю и верхнюю границу облачности).


Погода в Уральске - сегодня

Время (UTC), дата Ветер
(°,м/с) 
Видим.   Явления Облачность Т
(°С)
Тd
(°С)
f(%) Тe
(°С)
Pmin
(гПа)
dP
(гПа)
Po
(мм)
O2
(г/м3)
Тmin Tmax R s Состояние
почвы
18 15.04.18 300 (СЗ) н/о    ясно 
+4.1 -1.5 67 +5  1021.7  0.1  763  303    +12.9       
21 15.04.18 тихо ()   н/о    ясно 
+0.6 -2.7 79 +1  1021.5  -0.2  763  307           
00 16.04.18 270 (З) н/о    ясно 
+0 -3.4 78 +1  1020.3  -1.2  762  307           
06 16.04.18 300 (СЗ) 10 км    1/0 верхняя 
[Ci fib]
+12.2 -0.4 42 +13  1020  0.2  762  294  -0.1         
09 16.04.18 320 (СЗ) 10 км    3/0 средняя 
[Ac und]
+16.1 -4.3 24 +16  1019.6  -0.4  761  290           
12 16.04.18 290 (З) 10 км    3/3 1000 м 
[Cu hum]
+17.7 -3.5 23 +19  1018.1  -1.4  760  288           
15 16.04.18 310 (СЗ) 10 км    ясно 
+14.8 -2.2 31 +15  1017.7  -0.5  760  291    +18.2       
18 16.04.18 320 (СЗ) н/о    ясно 
+7.5 -0.9 55 +8  1018.7  0.9  761  298    +18.2       
00 17.04.18 тихо ()   н/о    ясно 
+1.1 -2.1 79 +1  1018.7  761  305           
03 17.04.18 310 (СЗ) 4000 м  дымка  8/0 верхняя 
[Cc]
+3.2 -1 74 +3  1019  0.3  761  303           
06 17.04.18 300 (СЗ) 10 км    9/0 верхняя 
[Ci]
+16 -1.6 30 +17  1019.1  0.3  761  290  -0.3         
09 17.04.18 260 (З) 10 км    9/6 1000 м верхняя 
[Cu med, cong|Ci fib]
+19.3 -2.7 22 +20  1018.3  -0.7  761  287           
12 17.04.18 270 (З) 10 км    8/5 1000 м верхняя 
[Cu med, cong|Ci fib]
+20 -2 23 +20  1017.6  -0.7  760  286           
15 17.04.18 310 (СЗ) 10 км    6/4 1000 м верхняя 
[Cu med, cong|Ci ing]
+16.9 -0.6 30 +18  1017.2  -0.4  760  288    +20.5       
18 17.04.18 тихо ()   н/о    ясно 
+7.8 +0.5 60 +8  1018.2  0.8  760  298    +20.5       
21 17.04.18 330 (СЗ) н/о    ясно 
+3.8 +0.6 80 +5  1018.8  0.5  761  302           
00 18.04.18 тихо ()   н/о    ясно 
+2.3 -0.2 84 +2  1018.6  -0.2  761  304           
06 18.04.18 280 (З) 10 км    3/0 верхняя 
[Ci fib]
+15.2 +4.3 48 +15  1018.2  760  290  +1.3         
09 18.04.18 010 (С) 10 км    9/6 1000 м верхняя 
[Cu med, cong|Ci fib]
+20.4 +0 25 +20  1016.6  -1.5  759  285           
12 18.04.18 260 (З) 10 км    10/6 1000 м 
[Cu med, cong]
+18.6 +5.7 43 +19  1015.9  -0.7  759  285           
15 18.04.18 230 (ЮЗ) 10 км    10/10 600 м кучево-дожд. 
[Cb cap]
+14.8 +8 64 +15  1015.7  -0.3  758  289    +21.7       
21 18.04.18 210 (ЮЗ) н/о  {дождь}  10/10 600 м 
[Ns]
+11.3 +9.9 91 +13  1013.2  -2  757  291           
03 19.04.18 190 (Ю) 4000 м  слаб. дождь  10/10 600 м 
[Ns]
+10 +7.5 84 +9  1009  -1.8  753  292      0.6     
09 19.04.18 210 (ЮЗ) 10 км  слаб. дождь  10/10 600 м 
[Ns]
+10.9 +9.3 90 +9  1007  -0.8  752  290           
21 19.04.18 160 (Ю) н/о  слаб. ливневой дождь  10/10 600 м кучево-дожд. 
[Cb cap]
+8.8 +8 95 +8  1003  -1.8  749  291           
Время (UTC), дата Ветер
(°,м/с) 
Видим.   Явления Облачность Т
(°С)
Тd
(°С)
f(%) Тe
(°С)
Pmin
(гПа)
dP
(гПа)
Po
(мм)
O2
(г/м3)
Тmin Tmax R s Состояние
почвы

Для получения пояснительной информации подведите курсор к названию столбца.

ПОГОДА в Уральске - архив

Всё, что Вы хотите узнать о погоде в Уральске - удобно и подробно!

Выберите нужную дату (начиная с 1 января 2015* года) и нажмите кнопку "Найти".
Будут отображены архивные сводки погоды по пункту Уральск, начиная с указанной даты.


Отображать данные в формате CSV (для использования в таблицах Excel)


Внимание! Наш архив погоды предназначен исключительно для личного некоммерческого использования в познавательных целях. Если Вам необходимы официальные справки о состоянии погоды (для производственных, юридических, коммерческих и т.п. целей), обращайтесь в органы Росгидромета.

*Примечание: данная дата относится к архиву по метеостанциям СССР (Россия, СНГ, Балтия).
Архив по метеостанциям Зарубежной Европы и Азии (кроме Китая) хранится 10 дней, по другим регионам земного шара (Китай, Африка, Америка, Австралия, Океания) - 1 день.

Уральск - район местоположения метеостанции


Название, широта, долгота, высота метеостанции:
Уральск (город) 51.2°ш. 51.3°д. 37 м над ур. моря [Казахстан]

Дополнительная информация

В oтличие oт бoльшинства пoгoдных сайтoв мы публикуем пoдрoбную метеoинфoрмацию в детальнoм прoфессиoнальнoм фoрмате.

Характеристики температуры и влажнoсти вoздуха измеряются на высoте 2 м в тени вдали oт зданий и деревьев.
Скoрoсть ветра измеряется на высoте 10 м (на урoвне рoста челoвека скoрoсть ветра ниже в 1.5-2 раза). Если метеoстанция нахoдится в гoрoде или в лесу, тo скoрoсть ветра занижена на 2-4 м/с пo сравнению с oткрытым местoм. Скoрoсть ветра над акватoриями крупных рек и oзёр, а также на вершинах хoлмoв на 2-5 м/с выше, чем в oбычных услoвиях.
Атмoсфернoе давление в разных тoчках местнoсти мoжет значительнo oтличаться oт давления на метеoстанции, в зависимoсти oт услoвий рельефа (при пoдъёме на 10 м давление пoнижается примернo на 1 мм рт.ст.).